When you browse on this site, cookies collect data to enhance your experience and personalize the content and advertising you see.
Visit our Privacy Policy to learn more. By continuing to use the site, you agree to this use of cookies and data.
  • In United Kingdom
  • List of Countries
  • For 7 days
  • Water Temperature
  • Weather Map
  • Weather Widgets
  • user-avatar
    Login

    Hourly Weather Sheffield

    Today, 25 February, Tuesday

    Time Temperature Precipitation Wind Pressure Humidity
    00:00 +2°C° 0 mm 7 mps 743 mmHg 80%
    01:00 +2°C° 0 mm 7 mps 742 mmHg 80%
    02:00 +2°C° 0 mm 7 mps 742 mmHg 80%
    03:00 0°C° 0 mm 7 mps 741 mmHg 80%
    04:00 +1°C° 0 mm 6 mps 741 mmHg 80%
    05:00 +1°C° 0 mm 6 mps 741 mmHg 80%
    06:00 +1°C° 0 mm 6 mps 741 mmHg 84%
    07:00 +1°C° 0.4 mm 6 mps 740 mmHg 85%
    08:00 0°C° 0.4 mm 7 mps 740 mmHg 85%
    09:00 0°C° 0.4 mm 7 mps 740 mmHg 85%
    10:00 +2°C° 0 mm 7 mps 739 mmHg 79%
    11:00 +3°C° 0 mm 7 mps 739 mmHg 72%
    12:00 +4°C° 0 mm 6 mps 739 mmHg 65%
    13:00 +4°C° 0.3 mm 6 mps 738 mmHg 67%
    14:00 +4°C° 0.3 mm 6 mps 737 mmHg 69%
    15:00 +3°C° 0.3 mm 5 mps 737 mmHg 71%
    16:00 +3°C° 0.1 mm 5 mps 737 mmHg 73%
    17:00 +3°C° 0.1 mm 4 mps 736 mmHg 75%
    18:00 +1°C° 0.1 mm 4 mps 736 mmHg 77%
    19:00 +1°C° 0 mm 4 mps 736 mmHg 80%
    20:00 +1°C° 0 mm 5 mps 736 mmHg 83%
    21:00 +1°C° 0 mm 5 mps 736 mmHg 86%
    22:00 -1°C° 0.2 mm 6 mps 737 mmHg 88%
    23:00 -1°C° 0.2 mm 6 mps 737 mmHg 89%

    Tomorrow, 26 February, Wednesday

    Time Temperature Precipitation Wind Pressure Humidity
    00:00 -1°C° 0.2 mm 6 mps 738 mmHg 91%
    01:00 -1°C° 0.1 mm 6 mps 738 mmHg 87%
    02:00 -1°C° 0.1 mm 6 mps 738 mmHg 83%
    03:00 0°C° 0.1 mm 5 mps 738 mmHg 79%
    04:00 0°C° 0 mm 5 mps 739 mmHg 80%
    05:00 0°C° 0 mm 5 mps 739 mmHg 81%
    06:00 0°C° 0 mm 5 mps 740 mmHg 81%
    07:00 0°C° 0 mm 5 mps 740 mmHg 79%
    08:00 +1°C° 0 mm 6 mps 741 mmHg 77%
    09:00 +2°C° 0 mm 7 mps 742 mmHg 75%
    10:00 +2°C° 0 mm 7 mps 743 mmHg 72%
    11:00 +2°C° 0 mm 8 mps 743 mmHg 69%
    12:00 +2°C° 0 mm 8 mps 744 mmHg 66%
    13:00 +2°C° 0 mm 8 mps 744 mmHg 63%
    14:00 +2°C° 0 mm 8 mps 745 mmHg 59%
    15:00 +2°C° 0 mm 8 mps 745 mmHg 55%
    16:00 +2°C° 0 mm 7 mps 745 mmHg 60%
    17:00 +1°C° 0 mm 6 mps 746 mmHg 65%
    18:00 +1°C° 0 mm 5 mps 746 mmHg 70%
    19:00 0°C° 0 mm 5 mps 745 mmHg 73%
    20:00 0°C° 0 mm 4 mps 745 mmHg 77%
    21:00 0°C° 0 mm 4 mps 745 mmHg 80%
    22:00 0°C° 0 mm 4 mps 744 mmHg 82%
    23:00 0°C° 0 mm 4 mps 744 mmHg 84%

    Day after tomorrow, 27 February, Thursday

    Time Temperature Precipitation Wind Pressure Humidity
    00:00 0°C° 0 mm 4 mps 743 mmHg 87%
    01:00 0°C° 0.1 mm 4 mps 742 mmHg 89%
    02:00 0°C° 0.1 mm 4 mps 741 mmHg 92%
    03:00 +1°C° 0.1 mm 3 mps 740 mmHg 94%
    04:00 +2°C° 0.4 mm 2 mps 739 mmHg 95%
    05:00 +2°C° 0.4 mm 2 mps 738 mmHg 95%
    06:00 +3°C° 0.4 mm 1 mps 738 mmHg 96%
    07:00 +2°C° 0.8 mm 1 mps 737 mmHg 96%
    08:00 +2°C° 0.8 mm 1 mps 737 mmHg 97%
    09:00 +1°C° 0.8 mm 2 mps 736 mmHg 97%
    10:00 +1°C° 0.4 mm 3 mps 737 mmHg 93%
    11:00 0°C° 0.4 mm 4 mps 738 mmHg 89%
    12:00 +1°C° 0.4 mm 6 mps 738 mmHg 85%
    13:00 +1°C° 0 mm 6 mps 739 mmHg 80%
    14:00 +2°C° 0 mm 7 mps 740 mmHg 74%
    15:00 +3°C° 0 mm 7 mps 741 mmHg 69%
    16:00 +2°C° 0 mm 7 mps 742 mmHg 71%
    17:00 +1°C° 0 mm 6 mps 743 mmHg 73%
    18:00 +1°C° 0 mm 6 mps 744 mmHg 74%
    19:00 +1°C° 0 mm 6 mps 745 mmHg 75%
    20:00 0°C° 0 mm 5 mps 746 mmHg 76%
    21:00 0°C° 0 mm 5 mps 747 mmHg 77%
    22:00 0°C° 0 mm 5 mps 747 mmHg 78%
    23:00 0°C° 0 mm 5 mps 748 mmHg 79%

    28 February, Friday

    Time Temperature Precipitation Wind Pressure Humidity
    00:00 0°C° 0 mm 5 mps 749 mmHg 80%
    01:00 0°C° 0 mm 5 mps 749 mmHg 80%
    02:00 0°C° 0 mm 5 mps 749 mmHg 79%
    03:00 0°C° 0 mm 4 mps 749 mmHg 79%
    04:00 0°C° 0 mm 4 mps 749 mmHg 80%
    05:00 +1°C° 0 mm 3 mps 749 mmHg 81%
    06:00 0°C° 0 mm 3 mps 749 mmHg 82%
    07:00 +1°C° 0 mm 3 mps 749 mmHg 82%
    08:00 +2°C° 0 mm 2 mps 749 mmHg 81%
    09:00 +3°C° 0 mm 2 mps 749 mmHg 80%
    10:00 +3°C° 0 mm 3 mps 749 mmHg 76%
    11:00 +3°C° 0 mm 3 mps 749 mmHg 73%
    12:00 +4°C° 0 mm 4 mps 749 mmHg 70%
    13:00 +4°C° 0 mm 4 mps 748 mmHg 73%
    14:00 +4°C° 0 mm 4 mps 747 mmHg 77%
    15:00 +3°C° 0 mm 5 mps 746 mmHg 80%
    16:00 +2°C° 0.3 mm 5 mps 745 mmHg 85%
    17:00 +2°C° 0.3 mm 5 mps 744 mmHg 89%
    18:00 +1°C° 0.3 mm 5 mps 743 mmHg 94%
    19:00 +2°C° 0.4 mm 5 mps 742 mmHg 94%
    20:00 +2°C° 0.4 mm 5 mps 740 mmHg 94%
    21:00 +2°C° 0.4 mm 5 mps 739 mmHg 94%
    22:00 +3°C° 1.4 mm 5 mps 738 mmHg 95%
    23:00 +3°C° 1.4 mm 5 mps 737 mmHg 96%

    29 February, Saturday

    Time Temperature Precipitation Wind Pressure Humidity
    00:00 +5°C° 1.4 mm 5 mps 736 mmHg 97%
    01:00 +6°C° 0 mm 5 mps 735 mmHg 95%
    02:00 +5°C° 0 mm 6 mps 733 mmHg 93%
    03:00 +7°C° 0 mm 6 mps 732 mmHg 91%
    04:00 +6°C° 0.2 mm 7 mps 730 mmHg 90%
    05:00 +6°C° 0.2 mm 8 mps 729 mmHg 89%
    06:00 +6°C° 0.2 mm 9 mps 727 mmHg 89%
    07:00 +6°C° 0.7 mm 8 mps 726 mmHg 87%
    08:00 +5°C° 0.7 mm 8 mps 726 mmHg 86%
    09:00 +5°C° 0.7 mm 8 mps 726 mmHg 84%
    10:00 +4°C° 0.4 mm 7 mps 726 mmHg 85%
    11:00 +4°C° 0.4 mm 7 mps 727 mmHg 87%
    12:00 +3°C° 0.4 mm 7 mps 727 mmHg 89%
    13:00 +3°C° 0.5 mm 7 mps 728 mmHg 81%
    14:00 +3°C° 0.5 mm 7 mps 729 mmHg 73%
    15:00 +2°C° 0.5 mm 8 mps 730 mmHg 66%
    16:00 +2°C° 0 mm 7 mps 730 mmHg 68%
    17:00 +2°C° 0 mm 6 mps 731 mmHg 69%
    18:00 +1°C° 0 mm 6 mps 732 mmHg 71%
    19:00 +1°C° 0 mm 6 mps 733 mmHg 74%
    20:00 -1°C° 0 mm 6 mps 733 mmHg 78%
    21:00 -1°C° 0 mm 6 mps 734 mmHg 82%
    22:00 -1°C° 0 mm 6 mps 734 mmHg 80%
    23:00 -1°C° 0 mm 6 mps 734 mmHg 78%

    1 March, Sunday

    Time Temperature Precipitation Wind Pressure Humidity
    00:00 -1°C° 0 mm 6 mps 735 mmHg 77%
    01:00 -1°C° 0 mm 6 mps 735 mmHg 77%
    02:00 -1°C° 0 mm 6 mps 735 mmHg 77%
    03:00 -2°C° 0 mm 6 mps 735 mmHg 78%
    04:00 -1°C° 0 mm 5 mps 735 mmHg 79%
    05:00 -1°C° 0 mm 5 mps 735 mmHg 81%
    06:00 -1°C° 0 mm 5 mps 735 mmHg 82%
    07:00 0°C° 0 mm 5 mps 735 mmHg 83%
    08:00 -1°C° 0 mm 6 mps 735 mmHg 83%
    09:00 +1°C° 0 mm 6 mps 735 mmHg 83%
    10:00 +2°C° 0.1 mm 6 mps 735 mmHg 78%
    11:00 +3°C° 0.1 mm 6 mps 735 mmHg 72%
    12:00 +4°C° 0.1 mm 6 mps 735 mmHg 66%
    13:00 +4°C° 0.1 mm 6 mps 735 mmHg 63%
    14:00 +4°C° 0.1 mm 6 mps 735 mmHg 61%
    15:00 +5°C° 0.1 mm 6 mps 735 mmHg 58%
    16:00 +3°C° 0 mm 5 mps 736 mmHg 63%
    17:00 +2°C° 0 mm 5 mps 736 mmHg 68%
    18:00 +1°C° 0 mm 4 mps 736 mmHg 73%
    19:00 +1°C° 0 mm 4 mps 737 mmHg 75%
    20:00 +1°C° 0 mm 4 mps 737 mmHg 77%
    21:00 0°C° 0 mm 5 mps 738 mmHg 79%
    22:00 0°C° 0 mm 4 mps 738 mmHg 81%
    23:00 0°C° 0 mm 4 mps 738 mmHg 82%
    Show more